Location: Dob?e?
(49.9411°N, 15.1496°E)
Time: 05:08:25
(UTC+00:00)

Cosmos 2184 Rocket - Pass Details

Date: 07 June 2020
Orbit: 960 x 1001 km, 82.9° (Epoch: 14 July)

Event Time Altitude Azimuth Distance (km) Brightness Sun altitude
Exits shadow 01:16:28 14° 211° (SSW) 2,387 5.4 -11.1°
Maximum altitude 01:21:36 53° 285° (WNW) 1,168 4.3 -10.6°
Drops below altitude 10° 01:27:40 10° 2° (N) 2,711 7.3 -10.1°
Sets 01:30:15 0° 8° (N) 3,666 8.2 -9.9°
